Vertical_Velocity
-0 -1 -3 1 -1 -2 -1 2 0 1 -1 -1 -1 -1 -0 -1 -0 -1 -1 -1 -1 -1 -1 -2 -1 -0 -0 -1 -1 -1 -0 -2 -2 1 -2 2 0 1 -0 -0 0 1 0
-1 1 1 -1 0 -1 1 1 2 2 -0 -1 -0 -1 0 1 0 -0 1 1 -0 -0 -1 -0 -1 -1 -1 -1 -1 -1 -0 -1 -0 -2 1 2 2 0 2 1 1 1 2
2 3 2 0 1 -0 1 -1 -0 2 1 1 1 0 -0 -1 -2 -1 -2 -3 -3 -3 -2 -1 -0 -1 0 -0 -1 -1 -2 1 -2 -2 -3 -3 -0 0 2 1 1 0 -0
-1 -0 1 3 2 2 2 0 -0 0 0 2 1 0 -0 -1 -1 0 1 1 2 1 0 0 -1 -1 -0 -0 -0 0 0 0 2 -0 -1 -1 -4 -4 0 2 1 -0 1
0 -1 1 3 3 3 3 1 0 2 1 -0 -0 -0 0 0 0 -0 0 0 -1 -0 -0 -0 -0 -0 0 0 0 -0 0 -1 1 -0 1 -0 -2 -2 -6 -0 9 2 -1
-2 -0 3 4 4 2 1 1 1 -0 -0 0 -0 0 1 -1 0 0 0 -0 0 2 1 -1 -1 -1 -1 -1 -1 0 1 1 0 -0 -0 -0 -1 2 -2 -7 -1 -3 11
5 2 -1 -0 1 1 1 -1 0 2 1 1 -0 -0 -1 -1 -1 -1 -0 -0 -1 -1 -1 -1 -1 -0 0 -0 -1 -0 -1 -1 0 -0 1 1 1 -2 -0 -3 0 -9 1
2 -0 -0 1 0 -1 0 2 2 -1 -2 -1 1 1 0 0 -1 -1 -2 -1 -1 -0 0 -0 -1 -1 -0 -1 -1 -1 -1 -1 -0 0 -1 1 2 -0 0 -4 -5 -4 -6
-0 1 3 2 0 -0 -2 -3 -0 2 2 1 -0 -2 -3 -2 -1 -3 -4 -4 -3 -3 -2 -1 -1 -1 -0 -0 -1 -1 -1 -0 -1 -1 -0 -1 0 -0 0 1 1 -2 -14
2 -0 -0 -1 -1 -0 -1 -1 -1 -2 -1 -0 2 1 0 0 -2 -2 -2 -1 -0 1 0 0 -0 -0 -1 -1 -1 -0 -1 -1 -0 -1 0 0 -0 -0 -0 0 1 2 0
2 1 -2 -2 0 1 -0 1 2 2 2 2 2 1 -1 1 2 1 2 2 4 4 4 3 2 2 2 0 0 0 1 1 1 -0 -1 0 -2 1 1 0 -0 -0 -0
-3 -4 -1 0 1 0 0 3 4 5 3 2 2 1 1 1 -0 -2 -3 -1 1 0 -1 -1 -0 1 2 2 1 2 0 -2 -2 -1 -0 0 -1 1 0 -1 0 -0 1
-1 -2 -2 -1 -1 -2 -2 -2 -1 -2 -1 1 -1 -1 1 3 2 2 2 1 -1 -2 -0 2 0 -2 -3 -1 -1 -3 -1 1 0 -1 -2 -0 -1 2 1 2 -0 -1 -1
-1 -1 -1 -1 -1 -2 -2 -1 -1 0 3 2 4 3 3 -0 1 2 0 1 3 3 3 -1 -1 -1 1 -1 -3 -2 2 1 -0 -1 -2 -2 -3 -2 -2 -2 0 0 -0
-2 -4 -4 -3 -1 0 0 1 0 -0 3 5 3 4 2 3 4 0 2 2 -1 0 0 -1 -4 -2 -2 -5 0 -1 -2 -2 -0 -1 -1 0 1 -0 -3 -7 -1 -3 -2
-2 -2 -1 -2 -2 -1 -2 1 4 4 4 2 2 1 3 3 0 5 2 -0 1 -1 -0 -3 -0 1 1 -6 -1 -5 -2 -1 -1 -1 -0 -0 -1 1 1 1 -2 -3 -8
1 1 0 -0 -2 -2 -2 -2 -1 0 -1 1 2 2 2 4 1 -1 1 -3 -4 -1 1 5 -2 -1 2 -2 -3 -2 -0 -1 -2 -1 -0 1 0 -2 -2 1 1 3 0
-2 -0 -1 1 -0 1 3 2 0 2 1 2 1 3 3 3 2 2 -0 -3 4 5 -1 5 2 -2 3 -2 -4 -4 -3 1 -0 -2 -2 -3 -1 -1 -5 -5 -4 -4 -2
-2 -2 -0 -0 1 1 0 1 3 2 -0 1 1 1 1 5 2 1 -1 7 -1 2 0 1 -2 -5 1 -2 -2 -3 0 2 1 0 1 0 0 1 -2 -6 -6 -5 0
-2 -3 -0 2 1 -1 0 -1 -3 2 3 0 3 -1 -1 -4 1 1 2 -4 -8 -4 1 1 -4 -1 -2 1 -1 -3 -2 -2 -1 2 1 -1 -4 -2 -1 -5 -3 -8 -1
-1 -5 -3 -3 -2 -1 -1 0 1 -4 -0 2 -1 2 0 -0 -3 0 2 -1 -3 -3 1 1 2 -1 -1 2 -1 -1 -5 -3 -4 -2 -4 -1 -2 -3 0 2 -3 -1 -3
-3 -5 -2 -1 -1 -1 -0 1 1 -2 -1 0 -2 -1 2 2 1 2 1 -3 -6 -4 -0 -2 2 0 2 -0 1 -1 0 -0 -6 -2 -2 -3 -1 -1 -1 2 3 0 -1
-3 -4 -4 -3 -0 1 -1 -3 -1 -2 -1 -3 2 0 -2 -1 -0 -2 -0 -2 1 -1 -1 -1 -1 -1 1 2 4 -0 -1 1 -5 -1 -1 -1 -0 -1 -4 1 1 -2 -1
-1 -3 -3 -3 -2 -0 -1 -3 1 -5 -1 -1 -0 -3 -1 1 1 2 -1 -2 2 -1 0 0 -1 -1 -0 1 4 0 -1 4 2 -0 -5 -1 -1 3 -1 -4 2 1 0
-2 -2 -3 -2 1 -1 0 -0 -1 -3 -0 1 -2 -3 -3 -2 -2 2 -1 -1 9 1 -2 3 -1 -2 -3 5 -0 -4 -7 -7 -4 -13 -6 -2 -1 -2 1 1 -1 1 2
-1 -3 -2 -1 3 -1 -0 -1 -1 -5 -1 -1 3 2 1 3 0 -2 -2 11 -1 3 6 4 1 1 -4 -5 -7 -2 1 1 2 -8 -4 -2 -1 -3 -2 -1 1 1 1
Height
3151 3151 3153 3154 3154 3155 3155 3156 3156 3155 3154 3152 3150 3148 3146 3144 3142 3140 3138 3135 3132 3129 3127 3124 3121 3119 3116 3113 3111 3108 3106 3103 3101 3099 3097 3095 3094 3093 3092 3091 3090 3090 3089
3147 3148 3149 3149 3150 3151 3151 3152 3152 3151 3149 3147 3145 3143 3141 3140 3138 3136 3134 3131 3128 3125 3122 3119 3116 3114 3112 3109 3107 3104 3101 3099 3096 3094 3093 3092 3092 3089 3087 3086 3085 3084 3084
3143 3145 3145 3146 3146 3147 3147 3147 3147 3146 3144 3142 3140 3138 3136 3134 3132 3131 3128 3126 3123 3120 3117 3114 3112 3109 3107 3104 3102 3099 3097 3095 3091 3090 3089 3086 3085 3084 3082 3080 3079 3078 3077
3137 3139 3141 3142 3143 3143 3143 3142 3141 3140 3138 3137 3134 3133 3131 3130 3127 3126 3124 3121 3119 3116 3112 3109 3107 3104 3102 3099 3097 3095 3092 3090 3089 3086 3084 3082 3079 3077 3077 3075 3073 3072 3071
3132 3134 3136 3138 3139 3139 3138 3137 3136 3134 3133 3131 3130 3128 3127 3125 3122 3120 3118 3115 3112 3110 3107 3104 3102 3099 3097 3094 3092 3089 3087 3085 3083 3081 3079 3077 3074 3070 3067 3069 3069 3066 3064
3128 3131 3133 3134 3134 3133 3132 3131 3130 3128 3127 3126 3124 3122 3121 3119 3117 3114 3112 3110 3107 3105 3102 3099 3096 3094 3091 3089 3087 3084 3082 3080 3078 3076 3073 3071 3068 3066 3061 3058 3059 3057 3059
3126 3127 3127 3127 3127 3126 3126 3125 3124 3122 3121 3120 3118 3117 3115 3113 3111 3109 3107 3104 3101 3099 3096 3094 3091 3089 3086 3084 3082 3080 3078 3075 3073 3070 3067 3064 3061 3057 3054 3049 3049 3046 3049
3121 3121 3121 3122 3121 3121 3120 3119 3118 3117 3117 3115 3113 3111 3110 3108 3106 3104 3101 3098 3095 3093 3090 3088 3085 3083 3081 3079 3077 3075 3072 3070 3067 3064 3061 3058 3054 3051 3047 3042 3038 3036 3037
3116 3117 3117 3117 3117 3116 3115 3114 3113 3112 3110 3109 3109 3107 3105 3103 3101 3098 3096 3093 3090 3087 3085 3082 3080 3078 3075 3073 3070 3068 3065 3062 3059 3056 3053 3050 3046 3043 3040 3036 3031 3024 3023
3113 3113 3113 3113 3113 3112 3110 3109 3109 3108 3106 3105 3104 3102 3100 3098 3095 3092 3089 3086 3084 3082 3079 3077 3074 3072 3069 3066 3064 3061 3058 3055 3052 3049 3046 3042 3038 3035 3031 3027 3024 3019 3011
3110 3111 3110 3109 3108 3107 3106 3104 3103 3102 3100 3099 3097 3095 3093 3090 3088 3085 3082 3080 3077 3075 3073 3070 3068 3065 3062 3059 3056 3053 3050 3048 3045 3041 3037 3034 3028 3026 3022 3018 3014 3010 3005
3107 3106 3105 3103 3101 3100 3099 3098 3096 3095 3093 3091 3090 3087 3085 3083 3081 3079 3077 3075 3072 3069 3066 3064 3061 3058 3054 3050 3047 3045 3041 3039 3036 3032 3028 3024 3020 3016 3012 3007 3003 2999 2995
3101 3100 3099 3097 3095 3093 3092 3091 3090 3088 3086 3084 3083 3081 3079 3077 3074 3072 3070 3067 3065 3063 3060 3057 3053 3050 3047 3043 3038 3035 3033 3030 3026 3022 3017 3013 3009 3005 3001 2996 2992 2988 2983
3095 3094 3093 3092 3091 3089 3087 3085 3083 3082 3080 3077 3076 3074 3072 3069 3067 3065 3062 3060 3058 3055 3052 3049 3046 3042 3039 3034 3030 3026 3022 3019 3016 3011 3006 3002 2998 2993 2988 2984 2980 2975 2971
3091 3090 3089 3088 3086 3084 3082 3079 3076 3074 3072 3069 3067 3066 3063 3062 3059 3057 3055 3053 3050 3047 3044 3040 3036 3034 3029 3025 3021 3016 3012 3009 3004 3000 2995 2990 2985 2981 2976 2971 2967 2962 2958
3088 3085 3082 3080 3078 3076 3075 3073 3070 3067 3064 3061 3059 3058 3056 3054 3053 3050 3047 3045 3042 3039 3035 3030 3027 3024 3019 3014 3011 3006 3001 2997 2991 2986 2983 2979 2975 2971 2966 2961 2956 2951 2945
3083 3080 3077 3074 3071 3069 3067 3065 3062 3059 3057 3054 3052 3051 3049 3047 3044 3042 3039 3036 3032 3028 3026 3022 3018 3014 3011 3006 3002 2996 2991 2985 2981 2976 2971 2968 2964 2959 2954 2950 2946 2942 2937
3077 3074 3071 3068 3065 3063 3059 3056 3054 3051 3048 3045 3044 3044 3042 3039 3036 3033 3030 3026 3022 3020 3016 3013 3009 3005 3002 2996 2991 2985 2981 2976 2971 2966 2962 2957 2952 2947 2941 2936 2930 2927 2924
3069 3066 3062 3059 3056 3053 3051 3049 3046 3043 3042 3040 3038 3036 3035 3032 3028 3025 3020 3018 3014 3011 3008 3004 3001 2996 2992 2987 2981 2974 2969 2965 2962 2957 2953 2948 2943 2937 2931 2925 2919 2915 2912
3062 3058 3055 3051 3047 3044 3042 3040 3038 3038 3035 3034 3031 3028 3025 3024 3021 3017 3012 3008 3006 3003 3000 2995 2990 2985 2980 2975 2970 2965 2959 2955 2950 2948 2943 2939 2933 2928 2922 2915 2908 2901 2899
3055 3051 3047 3044 3040 3037 3034 3032 3031 3030 3030 3026 3024 3022 3018 3015 3013 3008 3005 3000 2997 2994 2991 2985 2979 2974 2970 2964 2960 2955 2949 2945 2939 2935 2931 2927 2922 2917 2911 2904 2898 2892 2887
3047 3044 3041 3038 3034 3032 3030 3027 3025 3023 3022 3020 3017 3015 3011 3007 3003 2999 2996 2992 2988 2983 2979 2972 2967 2964 2959 2954 2949 2944 2940 2935 2929 2925 2920 2915 2910 2905 2899 2893 2888 2882 2876
3041 3038 3036 3033 3029 3026 3024 3022 3019 3017 3014 3011 3009 3006 3003 3000 2997 2992 2988 2983 2977 2971 2965 2959 2954 2951 2948 2944 2939 2934 2929 2925 2919 2915 2910 2904 2899 2893 2887 2882 2876 2870 2866
3035 3032 3030 3027 3025 3022 3018 3016 3013 3009 3007 3004 3002 3000 2997 2993 2989 2983 2978 2971 2964 2958 2952 2947 2942 2938 2935 2932 2927 2923 2919 2915 2910 2905 2900 2894 2887 2881 2876 2870 2865 2860 2856
3031 3027 3025 3023 3020 3017 3015 3010 3007 3003 3000 2997 2994 2991 2987 2982 2976 2970 2964 2957 2952 2945 2939 2936 2931 2926 2923 2921 2916 2911 2907 2903 2898 2891 2886 2881 2875 2869 2863 2858 2853 2849 2846
3025 3022 3020 3017 3014 3012 3009 3004 3000 2997 2994 2990 2986 2980 2974 2969 2962 2955 2950 2947 2940 2935 2931 2926 2920 2916 2911 2908 2905 2901 2897 2892 2887 2880 2874 2869 2863 2857 2852 2847 2842 2839 2836